Weather History for KEVW - November, 2012

Change the Weather History Date:

Sunday, November 18, 2012

  Actual Average Record
Temperature  
Mean Temperature 38 °F 28 °F  
Max Temperature 43 °F 37 °F 63 °F (2008)
Min Temperature 32 °F 20 °F 5 °F (2000)
Degree Days  
Heating Degree Days 28 37  
Month to date heating degree days 489 585  
Since 1 July heating degree days 1300 1638  
Cooling Degree Days 0 0  
Month to date cooling degree days 0 0  
Year to date cooling degree days 346 162  
Moisture  
Dew Point 33 °F    
Average Humidity 83    
Maximum Humidity 96    
Minimum Humidity 70    
Precipitation  
Precipitation 0.02 in 0.03 in 0.02 in (2012)
Month to date precipitation 0.49 0.73  
Year to date precipitation 5.52 11.24  
Sea Level Pressure  
Sea Level Pressure 30.06 in    
Wind  
Wind Speed 13 mph (SW)    
Max Wind Speed 21 mph    
Max Gust Speed 27 mph    
Visibility 7 miles    
Events Fog , Rain , Snow    
T = Trace of Precipitation, MM = Missing Value Source: NWS Daily Summary

Daily Weather History Graph

Daily Weather History Graph

Search for Another Location

Airport or City:

Trip Planner

Search our weather history database for the weather conditions in past years. The results will help you decide how hot, cold, wet, or windy it might be!

Date:

Astronomy

Nov. 18, 2012 Rise Set
Actual Time 7:16 AM MST 5:01 PM MST
Civil Twilight 6:46 AM MST 5:31 PM MST
Nautical Twilight 6:12 AM MST 6:05 PM MST
Astronomical Twilight 5:40 AM MST 6:38 PM MST
Moon 11:45 AM MST (11/18) 10:26 PM MST (11/18)
Length of Visible Light 10h 45m
Length of Day
9h 45m
Waxing Crescent, 31% of the Moon is Illuminated
Nov 18
Waxing Crescent
Nov 20
First Quarter
Nov 28
Full
Dec 6
Last Quarter
Dec 13
New

Hourly Weather History & Observations

Time (MST) Temp. Windchill Dew Point Humidity Pressure Visibility Wind Dir Wind Speed Gust Speed Precip Events Conditions
12:53 AM 35.1 °F 27.4 °F 33.1 °F 92% 29.93 in 10.0 mi SSW 10.4 mph - 0.00 in   Overcast
1:53 AM 34.0 °F 26.0 °F 32.0 °F 92% 29.93 in 10.0 mi SSW 10.4 mph - N/A   Partly Cloudy
2:53 AM 34.0 °F 25.5 °F 32.0 °F 92% 29.94 in 10.0 mi SW 11.5 mph - N/A   Mostly Cloudy
3:53 AM 34.0 °F 25.5 °F 33.1 °F 96% 29.94 in 10.0 mi SSW 11.5 mph - N/A   Mostly Cloudy
4:53 AM 34.0 °F 26.0 °F 32.0 °F 92% 29.95 in 10.0 mi SSW 10.4 mph - N/A   Mostly Cloudy
5:53 AM 34.0 °F 26.0 °F 32.0 °F 92% 29.95 in 10.0 mi SW 10.4 mph - N/A   Clear
6:53 AM 35.1 °F 25.9 °F 32.0 °F 89% 29.96 in 10.0 mi SW 13.8 mph - N/A   Mostly Cloudy
7:53 AM 35.1 °F 25.9 °F 33.1 °F 92% 29.97 in 10.0 mi SW 13.8 mph - 0.00 in   Overcast
8:44 AM 35.6 °F 27.1 °F 33.8 °F 93% 30.03 in 6.0 mi SW 12.7 mph - 0.01 in Rain Light Rain
8:53 AM 35.1 °F 26.9 °F 34.0 °F 96% 30.00 in 6.0 mi SW 11.5 mph - 0.02 in Rain Light Rain
9:11 AM 35.6 °F 27.5 °F 35.6 °F 100% 30.04 in 10.0 mi SW 11.5 mph - 0.00 in   Overcast
9:36 AM 35.6 °F 27.1 °F 35.6 °F 100% 30.05 in 10.0 mi SSW 12.7 mph - 0.00 in   Mostly Cloudy
9:45 AM 37.4 °F 29.8 °F 35.6 °F 93% 30.04 in 10.0 mi SSW 11.5 mph - 0.00 in   Scattered Clouds
9:53 AM 37.9 °F 30.0 °F 36.0 °F 93% 29.99 in 10.0 mi SSW 12.7 mph - 0.00 in   Scattered Clouds
10:09 AM 39.2 °F 30.8 °F 37.4 °F 93% 30.05 in 10.0 mi SW 15.0 mph - N/A   Scattered Clouds
10:34 AM 39.2 °F 32.5 °F 37.4 °F 93% 30.06 in 10.0 mi SW 10.4 mph - 0.00 in Rain Light Rain
10:53 AM 41.0 °F 32.8 °F 37.0 °F 86% 29.99 in 10.0 mi SSW 16.1 mph - 0.00 in   Scattered Clouds
11:16 AM 39.2 °F 30.5 °F 35.6 °F 87% 30.06 in 10.0 mi SSW 16.1 mph - N/A   Mostly Cloudy
11:27 AM 39.2 °F 30.2 °F 35.6 °F 87% 30.06 in 10.0 mi SSW 17.3 mph 24.2 mph N/A   Overcast
11:53 AM 41.0 °F 32.5 °F 36.0 °F 82% 30.00 in 10.0 mi SW 17.3 mph 24.2 mph N/A   Overcast
12:00 PM 41.0 °F 32.5 °F 35.6 °F 81% 30.06 in 10.0 mi SW 17.3 mph 24.2 mph N/A   Overcast
12:53 PM 41.0 °F 33.1 °F 34.0 °F 76% 29.98 in 10.0 mi SSW 15.0 mph 27.6 mph N/A   Overcast
1:53 PM 43.0 °F 35.1 °F 35.1 °F 74% 29.96 in 10.0 mi SSW 17.3 mph 23.0 mph N/A   Mostly Cloudy
2:35 PM 41.0 °F 32.2 °F 33.8 °F 76% 30.04 in 10.0 mi SSW 18.4 mph - N/A   Overcast
2:53 PM 39.9 °F 31.8 °F 33.1 °F 77% 30.00 in 10.0 mi SSW 15.0 mph 26.5 mph N/A   Overcast
3:29 PM 37.4 °F 28.5 °F 33.8 °F 87% 30.06 in 10.0 mi SW 15.0 mph 21.9 mph 0.00 in   Mostly Cloudy
3:53 PM 37.9 °F 31.5 °F 34.0 °F 86% 30.04 in 10.0 mi SW 9.2 mph - 0.00 in   Mostly Cloudy
4:05 PM 37.4 °F 30.3 °F 33.8 °F 87% 30.08 in 10.0 mi SW 10.4 mph - 0.00 in Rain Light Rain
4:27 PM 37.4 °F 30.3 °F 33.8 °F 87% 30.09 in 10.0 mi SW 10.4 mph - 0.00 in   Overcast
4:53 PM 37.0 °F 30.4 °F 34.0 °F 89% 30.05 in 10.0 mi SW 9.2 mph - 0.00 in   Overcast
5:21 PM 35.6 °F 30.7 °F 33.8 °F 93% 30.09 in 10.0 mi SSW 5.8 mph - N/A   Scattered Clouds
5:53 PM 35.1 °F 27.9 °F 32.0 °F 89% 30.07 in 10.0 mi SSW 9.2 mph - N/A   Clear
6:53 PM 34.0 °F 26.0 °F 32.0 °F 92% 30.08 in 10.0 mi SW 10.4 mph - N/A   Partly Cloudy
7:53 PM 33.1 °F 26.1 °F 30.9 °F 92% 30.09 in 10.0 mi South 8.1 mph - 0.01 in   Clear
8:46 PM 33.8 °F 21.3 °F 30.2 °F 87% 30.16 in 2.0 mi WSW 24.2 mph 31.1 mph 0.00 in Snow Light Snow
8:48 PM 33.8 °F 22.5 °F 30.2 °F 87% 30.16 in 1.5 mi WSW 19.6 mph 31.1 mph 0.00 in Snow Light Snow
8:51 PM 33.8 °F 23.5 °F 30.2 °F 87% 30.16 in 0.8 mi West 16.1 mph 31.1 mph 0.00 in Snow Light Snow
8:53 PM 33.1 °F 22.2 °F 30.9 °F 92% 30.14 in 0.8 mi West 17.3 mph 29.9 mph 0.00 in Snow Light Snow
9:01 PM 33.8 °F 23.9 °F 32.0 °F 93% 30.16 in 0.8 mi West 15.0 mph 24.2 mph 0.00 in Snow Light Snow
9:07 PM 33.8 °F 25.8 °F 32.0 °F 93% 30.16 in 1.2 mi WNW 10.4 mph - 0.00 in Snow Light Snow
9:16 PM 33.8 °F 27.7 °F 32.0 °F 93% 30.16 in 2.0 mi West 6.9 mph - 0.00 in Snow Light Snow
9:32 PM 32.0 °F 26.4 °F 32.0 °F 100% 30.16 in 3.0 mi WNW 5.8 mph - 0.00 in Snow Light Snow
9:46 PM 33.8 °F - 32.0 °F 93% 30.16 in 2.5 mi Calm Calm - 0.00 in Snow Light Snow
9:53 PM 32.0 °F 27.5 °F 30.9 °F 96% 30.13 in 1.2 mi East 4.6 mph - 0.00 in Snow Light Snow
9:58 PM 32.0 °F 28.7 °F 30.2 °F 93% 30.16 in 0.5 mi East 3.5 mph - 0.00 in Fog , Snow Light Snow
10:16 PM 32.0 °F - 30.2 °F 93% 30.16 in 0.2 mi Calm Calm - 0.00 in Fog Fog
10:19 PM 32.0 °F 28.7 °F 32.0 °F 100% 30.16 in 0.2 mi East 3.5 mph - 0.00 in Fog Fog
10:26 PM 32.0 °F 28.7 °F 30.2 °F 93% 30.16 in 0.2 mi ENE 3.5 mph - 0.00 in Fog Fog
10:53 PM 32.0 °F - 32.0 °F 100% 30.12 in 0.2 mi Calm Calm - 0.00 in Fog Fog
11:53 PM 32.0 °F 28.7 °F 30.0 °F 92% 30.13 in 0.2 mi NNW 3.5 mph - N/A Fog Fog